Location: Dana
(41.8364°N, 106.7042°W)
Time: 13:20:24
(UTC+00:00)

ISS - Pass Details

Date: 18 April 2026
Orbit: 414 x 424 km, 51.6° (Epoch: 12 May)

Event Time Altitude Azimuth Distance (km) Brightness Sun altitude
Exits shadow 11:10:42 14° 194° (SSW) 1,285 -1.7 -13.1°
Maximum altitude 11:13:06 30° 136° (SE) 776 -2.3 -12.7°
Drops below altitude 10° 11:16:07 10° 73° (ENE) 1,503 0.5 -12.2°
Sets 11:18:22 0° 63° (ENE) 2,374 2.3 -11.8°
